User: anonymous   Login
Location: Unspecified
(0.0000°N, 0.0000°E)
Time: 20:34:40
(UTC+00:00)
Language:

USA 276 - Orbit

View from above orbital plane
View from above orbital plane
View from above satellite
View from above satellite

Ground track
Ground track

The orbit data is extracted from the following two-line orbital elements,

1 42689U 17022A   21133.03986804 0.00000000  00000-0  00000-0 0    02
2 42689  50.0030 192.4774 0001498 272.6381  87.3617 15.60383965    02
Epoch (UTC): 13 May 2021 00:57:24
Eccentricity: 0.0001498
inclination: 50.0030°
perigee height: 385 km
apogee height: 387 km
right ascension of ascending node: 192.4774°
argument of perigee: 272.6381°
revolutions per day: 15.60383965
mean anomaly at epoch: 87.3617°
orbit number at epoch: 0

The dashed part of the orbit path shows where the satellite is in the earth's shadow,  

DLR